Regional Weather Roundup
Issued by NWS

Home | Current Version | Previous Version | Graphics & Text | Print | Product List | Glossary On
Versions: 1 2 3 4 5 6 7 8 9 10 11 12 13 14 15 16 17 18 19 20 21 22 23 24 25 26 27 28 29 30 31 32 33 34 35 36 37 38 39 40 41 42 43 44 45 46 47 48 49 50
000
ASUS43 KLSX 292107
RWRMO

WEATHER SUMMARY FOR MISSOURI
NATIONAL WEATHER SERVICE SPRINGFIELD MO
400 PM CDT TUE JUL 29 2014

NOTE: "FAIR" INDICATES FEW OR NO CLOUDS BELOW 12,000 FEET WITH NO
       SIGNIFICANT WEATHER AND/OR OBSTRUCTIONS TO VISIBILITY.
       CURRENT SKY AND/OR WEATHER CONDITIONS ARE NOT AVAILABLE FOR
       CHILLICOTHE AND FARMINGTON.

MOZ001>031-035>038-043-044-053-054-292200-
...NORTHERN AND WESTERN MISSOURI...

CITY           SKY/WX    TMP DP  RH WIND       PRES   REMARKS
KANSAS CTY INT PTSUNNY   81  58  45 VRB3      30.14F
KANSAS C DTWN  MOSUNNY   83  57  41 N7        30.12F
LEE`S SUMMIT   MOSUNNY   82  56  40 VRB6      30.14F
ST JOSEPH      PTSUNNY   81  60  48 NW7       30.14F
CHILLICOTHE      N/A     81  57  43 N8        30.14F
KIRKSVILLE     MOSUNNY   80  54  40 N3        30.14F

$$
MOZ066>068-077>081-088>096-101>105-292200-
...SOUTHWEST MISSOURI...

CITY           SKY/WX    TMP DP  RH WIND       PRES   REMARKS
SPRINGFIELD    MOSUNNY   81  52  36 VRB6      30.14F
JOPLIN         CLOUDY    79  58  48 W8        30.15F

$$
MOZ032>034-039>042-045>050-055>058-069>072-292200-
...CENTRAL MISSOURI...

CITY           SKY/WX    TMP DP  RH WIND       PRES   REMARKS
COLUMBIA       MOSUNNY   80  56  43 N8        30.13F
JEFFERSON CITY MOSUNNY   81  53  37 NW8       30.11F
ROLLA          PTSUNNY   78  52  40 N6        30.12F
SEDALIA        MOSUNNY   82  58  43 N10       30.14F
WHITEMAN AFB   PTSUNNY   79  44  28 VRB1      30.13S
OSAGE BEACH    MOSUNNY   81  54  39 NW6       30.12F

$$
MOZ051-052-059>065-292200-
...EAST CENTRAL MISSOURI...

CITY           SKY/WX    TMP DP  RH WIND       PRES   REMARKS
ST LOUIS INTL  MOSUNNY   81  56  42 N7        30.12F
SPIRIT OF STL  PTSUNNY   80  53  39 NE7       30.10F
ST CHARLES     MOSUNNY   80  56  43 W9        30.11F

$$
MOZ072>076-082>087-097>100-106>115-292200-
...SOUTH CENTRAL AND SOUTHEAST MISSOURI...

CITY           SKY/WX    TMP DP  RH WIND       PRES   REMARKS
CAPE GIRARDEAU PTSUNNY   80  53  39 MISG      30.12F
FARMINGTON     PTSUNNY   77  52  41 NW7       30.15F
POPLAR BLUFF   MOSUNNY   78  53  41 MISG      30.12F
WEST PLAINS    MOSUNNY   80  56  43 CALM      30.15F

$$


USA.gov is the U.S. government's official web portal to all federal, state and local government web resources and services.